カタログに戻る

DELTA 1 DEB

運用中PO
NORAD 26837·DEBRIS·🇺🇸 United States

打ち上げ Jun 12, 1975 から Vandenberg Space Force Base

Loading…

次のパス (今後24時間)

TLE

最新Source: Space-Track

元期: Sep 14, 2026, 22:47 UTC

1 26837U 75052KR  26257.94975475  .00000679  00000-0  18083-2 0  9991
2 26837  99.6997  65.4807 0282829  39.8597 112.0112 13.05788533263416

AllMySatでDELTA 1 DEBをリアルタイム追跡

Download on the App Store